Regional Weather Roundup
Issued by NWS

Home | Current Version | Previous Version | Text Only | Print | Product List | Glossary On
Versions: 1 2 3 4 5 6 7 8 9 10 11 12 13 14 15 16 17 18 19 20 21 22 23 24 25 26 27 28 29 30 31 32 33 34 35 36 37 38 39 40 41 42 43 44 45 46 47 48 49 50
000
ASUS45 KSLC 290010
RWRUT

UTAH REGIONAL WEATHER ROUNDUP
NATIONAL WEATHER SERVICE SALT LAKE CITY UT
500 PM MST SUN DEC 28 2014

UTZ001>011-023>025-290100-

NORTHERN UTAH

CITY           SKY/WX    TMP DP  RH WIND       PRES   REMARKS
BRIGHAM CITY   CLOUDY    31  24  76 S13       30.04R WCI  21
HILL AFB       FLURRIES  27  27 100 S10       30.03R WCI  17
LOGAN          CLOUDY    28  21  75 N6        30.02R WCI  22
OGDEN          CLOUDY    29  26  89 S8        30.02S WCI  21
PROVO AIRPORT  LGT SNOW  28  25  86 CALM      30.06R VSB 1
SALT LAKE CITY LGT SNOW  29  26  89 SE7       30.04F FOG     WCI  22
VERNAL         CLOUDY    25  16  68 N6        29.98S WCI  18
WENDOVER       CLOUDY    32  27  80 NE3       30.06R
HEBER CITY     LGT SNOW  27  23  86 SE3       29.99F
WEST JORDAN    CLOUDY    27  27 100 SE3       30.04F

$$

UTZ012>022-026-027-290100-

SOUTHERN/CENTRAL UTAH

CITY           SKY/WX    TMP DP  RH WIND       PRES   REMARKS
BLANDING       CLEAR     28  11  49 CALM      30.12S
BRYCE CANYON   CLEAR     31  13  47 CALM      30.00S
CEDAR CITY     CLEAR     30  15  53 SW12      30.01F WCI  20
DELTA          CLOUDY    32  20  60 N7        30.01R WCI  26
MILFORD        CLEAR     33  17  51 SW12      29.98F WCI  24
MOAB/CYNLANDS  CLEAR     23  12  62 W5        30.03F WCI  17
PRICE          CLOUDY    27  11  51 NE5       29.98S WCI  22
ST GEORGE      CLOUDY    43   9  24 CALM      30.15S
KANAB          CLEAR     37   5  25 SW7       30.10F WCI  32

$$

REGIONAL REPORTS     COLORADO/ARIZONA

CITY           SKY/WX    TMP DP  RH WIND       PRES   REMARKS
CRAIG, CO      LGT SNOW  23  20  88 SW15      29.94F VSB 3/4 WCI  10
GRAND JUNCTION CLEAR     23  15  71 NW5       30.03F WCI  17
RIFLE          PTCLDY    21  12  68 S5        30.01F WCI  15
MONTROSE       CLOUDY    30  12  47 W5        30.02S WCI  25
CORTEZ         CLEAR     27  12  53 S6        30.05F WCI  20
PAGE, AZ       CLEAR     38   9  30 CALM      30.05F
GRAND CANYON   CLEAR     35   6  29 SW7       30.09F WCI  29
KINGMAN        CLEAR     44  10  25 SW7       30.14S
FLAGSTAFF      CLEAR     34   1  24 SW14      30.09R WCI  25

$$

REGIONAL REPORTS    NEVADA/IDAHO/WYOMING

CITY           SKY/WX    TMP DP  RH WIND       PRES   REMARKS
LAS VEGAS, NV  CLEAR     47  11  23 SE6       30.11F
ELY            MOCLDY    36  18  48 SW6       30.00F WCI  31
ELKO           SNOW      29  24  82 E3        30.05F VSB 1/2
POCATELLO, ID  MOCLDY    28  24  85 SW13      30.01S WCI  17
BURLEY         CLOUDY    29  22  75 W9        30.01R WCI  20
EVANSTON, WY   MOCLDY    17  14  88 SW15      29.92R WCI   2
ROCK SPRINGS   PTCLDY    17  10  74 W17       29.89R WCI   1

$$


USA.gov is the U.S. government's official web portal to all federal, state and local government web resources and services.